GW1573 Weather Reports


Display with metric or nautical units.
time (UTC)temp
F
wind
direction
speed
MPH
gust
MPH
rain 1hr
in
rain 24hr
in
rain mn
in
humidity
%
barometer
mb
20260510191534 68 97 1.0 1.0 0.00 0.00 0.02 58 1016.9
20260510190926 66 78 0.0 0.0 0.00 0.00 0.02 61 1017.2
20260510190319 66 158 0.0 0.0 0.00 0.00 0.02 62 1016.9
20260510185121 67 116 2.0 2.0 0.00 0.00 0.02 64 1017.2
20260510184544 67 60 1.0 1.0 0.00 0.00 0.02 63 1016.9
20260510183943 66 85 0.0 1.0 0.00 0.00 0.02 61 1017.2
20260510183349 66 244 2.0 2.0 0.00 0.00 0.02 63 1017.2
20260510182738 66 231 2.0 3.0 0.00 0.00 0.02 60 1017.2
20260510182115 66 46 2.0 2.0 0.00 0.00 0.02 60 1016.9
20260510181544 67 68 0.0 1.0 0.00 0.00 0.02 59 1016.9
20260510180934 66 41 3.0 4.0 0.00 0.00 0.02 59 1016.9
20260510180317 65 36 4.0 4.0 0.00 0.00 0.02 60 1016.9
20260510175741 66 21 2.0 6.0 0.00 0.00 0.02 61 1016.9
20260510175152 68 121 2.0 2.0 0.00 0.00 0.02 58 1016.5
20260510173950 66 18 2.0 7.0 0.00 0.00 0.02 61 1016.9
20260510173326 66 32 2.0 3.0 0.00 0.00 0.02 65 1016.5
20260510172724 65 355 4.0 4.0 0.00 0.00 0.02 68 1016.5
20260510172111 65 126 1.0 1.0 0.00 0.00 0.02 71 1016.5
20260510170336 66 302 1.0 2.0 0.00 0.00 0.02 69 1016.5
20260510165751 64 45 4.0 4.0 0.00 0.00 0.02 71 1016.9
20260510164545 66 87 0.0 0.0 0.00 0.00 0.02 72 1016.5
20260510163944 66 61 2.0 2.0 0.00 0.00 0.02 74 1016.9
20260510162724 65 64 1.0 2.0 0.00 0.00 0.02 78 1016.5
20260510161529 64 12 1.0 2.0 0.00 0.00 0.02 79 1016.9
20260510160950 62 74 1.0 1.0 0.00 0.00 0.02 82 1016.5
20260510155736 63 77 0.0 0.0 0.00 0.00 0.02 81 1016.2
20260510155150 63 74 0.0 0.0 0.00 0.00 0.02 82 1016.2
20260510154523 63 50 0.0 0.0 0.00 0.00 0.02 81 1016.2
20260510153949 62 65 0.0 0.0 0.00 0.00 0.02 82 1016.2
20260510153322 63 68 0.0 1.0 0.00 0.00 0.02 81 1016.2
20260510152733 63 61 2.0 2.0 0.00 0.00 0.02 82 1016.2
20260510152149 63 45 2.0 3.0 0.00 0.00 0.02 79 1016.2
20260510151535 62 53 0.0 1.0 0.00 0.00 0.02 85 1015.9
20260510150914 60 356 2.0 2.0 0.00 0.00 0.02 90 1016.2
20260510150339 60 65 0.0 0.0 0.00 0.00 0.02 91 1015.9
20260510145717 60 76 0.0 0.0 0.00 0.00 0.02 92 1015.9
20260510145138 60 75 0.0 0.0 0.00 0.00 0.02 93 1015.9
20260510144510 59 75 0.0 0.0 0.00 0.00 0.02 93 1015.5
20260510143926 59 73 0.0 0.0 0.00 0.00 0.02 94 1015.5
20260510143335 59 78 0.0 0.0 0.00 0.00 0.02 94 1015.5
20260510142713 59 75 0.0 0.0 0.00 0.00 0.02 92 1015.2
20260510142128 60 97 0.0 0.0 0.00 0.00 0.02 87 1015.2
20260510140929 62 80 0.0 0.0 0.00 0.00 0.00 80 1015.5
20260510135715 63 77 0.0 0.0 0.00 0.00 0.00 78 1015.5
20260510135116 64 77 0.0 0.0 0.00 0.00 0.00 78 1015.9
20260510134511 66 304 2.0 4.0 0.00 0.00 0.00 74 1015.5
20260510133348 64 83 0.0 1.0 0.00 0.00 0.00 74 1015.2
20260510132749 63 134 2.0 3.0 0.00 0.00 0.00 77 1015.2
20260510131517 62 41 1.0 1.0 0.00 0.00 0.00 80 1015.5
20260510130920 61 102 0.0 1.0 0.00 0.00 0.00 81 1015.2
20260510130331 60 82 0.0 0.0 0.00 0.00 0.00 84 1015.2
20260510125751 60 323 1.0 1.0 0.00 0.00 0.00 84 1015.2
20260510125144 59 88 0.0 0.0 0.00 0.00 0.00 84 1015.2
20260510123308 58 107 0.0 0.0 0.00 0.00 0.00 87 1014.9
20260510122729 58 104 0.0 0.0 0.00 0.00 0.00 86 1014.9
20260510122133 58 103 0.0 0.0 0.00 0.00 0.00 88 1014.9
20260510121511 58 102 0.0 0.0 0.00 0.00 0.00 86 1014.5
20260510120949 58 104 0.0 1.0 0.00 0.00 0.00 87 1014.5
20260510115743 57 103 0.0 0.0 0.00 0.00 0.00 91 1014.5
20260510114518 56 107 0.0 0.0 0.00 0.00 0.00 89 1014.2
20260510113914 56 124 0.0 0.0 0.00 0.00 0.00 93 1014.2
20260510112710 54 84 0.0 0.0 0.00 0.00 0.00 97 1013.8
20260510112131 54 90 0.0 0.0 0.00 0.00 0.00 97 1013.8
20260510111532 53 88 0.0 0.0 0.00 0.00 0.00 98 1013.8
20260510110933 53 88 0.0 0.0 0.00 0.00 0.00 99 1013.8
20260510110312 53 89 0.0 0.0 0.00 0.00 0.00 99 1013.5
20260510105747 53 89 0.0 0.0 0.00 0.00 0.00 99 1013.2
20260510105143 53 89 0.0 0.0 0.00 0.00 0.00 99 1013.5
20260510103934 52 85 0.0 0.0 0.00 0.00 0.00 99 1013.2
20260510103324 52 86 0.0 0.0 0.00 0.00 0.00 99 1013.2
20260510102717 52 87 0.0 0.0 0.00 0.00 0.00 99 1013.2
20260510102142 52 83 0.0 0.0 0.00 0.00 0.00 99 1013.2
20260510101510 52 90 0.0 0.0 0.00 0.00 0.00 99 1012.8
20260510100351 51 88 0.0 0.0 0.00 0.00 0.00 99 1012.8
20260510095710 52 84 0.0 0.0 0.00 0.00 0.00 99 1012.8
20260510095139 51 106 0.0 0.0 0.00 0.00 0.00 99 1012.5
20260510094539 51 85 0.0 0.0 0.00 0.00 0.00 99 1012.5
20260510093908 51 90 0.0 0.0 0.00 0.00 0.00 99 1012.5
20260510093327 51 77 0.0 0.0 0.00 0.00 0.00 99 1012.5
20260510092725 51 85 0.0 0.0 0.00 0.00 0.00 99 1012.1
20260510092129 51 91 0.0 0.0 0.00 0.00 0.00 99 1012.5
20260510091537 51 91 0.0 0.0 0.00 0.00 0.00 99 1012.1
20260510090909 51 86 0.0 0.0 0.00 0.00 0.00 99 1012.1
20260510090341 51 90 0.0 0.0 0.00 0.00 0.00 99 1011.8
20260510085716 51 93 0.0 0.0 0.00 0.00 0.00 99 1012.1
20260510083948 51 86 0.0 0.0 0.00 0.00 0.00 99 1012.1
20260510083352 51 85 0.0 0.0 0.00 0.00 0.00 98 1012.1
20260510082744 51 80 0.0 0.0 0.00 0.00 0.00 98 1011.8
20260510082119 51 80 0.0 0.0 0.00 0.00 0.00 98 1012.1
20260510081549 52 78 0.0 0.0 0.00 0.00 0.00 97 1012.1
20260510080918 52 84 0.0 0.0 0.00 0.00 0.00 98 1012.1
20260510080327 52 82 0.0 0.0 0.00 0.00 0.00 97 1011.8
20260510075750 52 85 0.0 0.0 0.00 0.00 0.00 97 1011.8
20260510074542 52 85 0.0 0.0 0.00 0.00 0.00 97 1011.5
20260510073942 52 87 0.0 0.0 0.00 0.00 0.00 96 1011.8
20260510073347 53 84 0.0 0.0 0.00 0.00 0.00 96 1011.8
20260510072734 53 84 0.0 0.0 0.00 0.00 0.00 95 1011.8
20260510072126 53 85 0.0 0.0 0.00 0.00 0.00 95 1011.8
20260510071546 53 85 0.0 0.0 0.00 0.00 0.00 95 1011.8
20260510070925 53 79 0.0 0.0 0.00 0.00 0.00 93 1011.8
20260510070312 54 89 0.0 0.0 0.00 0.00 0.00 92 1011.5
20260510065734 54 81 0.0 0.0 0.00 0.00 0.00 91 1011.8
20260510065141 55 94 0.0 0.0 0.00 0.00 0.00 90 1011.5
20260510063923 55 86 0.0 0.0 0.00 0.00 0.00 89 1011.8
20260510063330 56 98 1.0 1.0 0.00 0.00 0.00 88 1011.8
20260510062709 56 105 1.0 1.0 0.00 0.00 0.00 86 1011.5
20260510062146 56 100 0.0 0.0 0.00 0.00 0.00 87 1011.8
20260510061534 56 94 0.0 0.0 0.00 0.00 0.00 87 1011.8
20260510060949 57 109 0.0 0.0 0.00 0.00 0.00 85 1011.8
20260510060341 57 114 1.0 1.0 0.00 0.00 0.00 85 1011.5
20260510055725 57 102 0.0 0.0 0.00 0.00 0.00 84 1011.8
20260510055118 58 112 1.0 1.0 0.00 0.00 0.00 84 1011.5
20260510054538 58 182 2.0 3.0 0.00 0.00 0.00 84 1011.8
20260510053314 58 128 1.0 1.0 0.00 0.00 0.00 84 1011.8
20260510052149 57 93 0.0 0.0 0.00 0.00 0.00 85 1011.8
20260510051548 58 93 0.0 0.0 0.00 0.00 0.00 84 1011.8
20260510050912 58 102 1.0 1.0 0.00 0.00 0.00 83 1011.8
20260510050332 58 99 0.0 1.0 0.00 0.00 0.00 83 1011.8
20260510045721 59 101 1.0 2.0 0.00 0.00 0.00 82 1011.8
20260510045110 59 119 2.0 3.0 0.00 0.00 0.00 81 1011.8
20260510043931 60 108 1.0 1.0 0.00 0.00 0.00 80 1011.8
20260510043338 60 156 0.0 0.0 0.00 0.00 0.00 80 1011.8
20260510042711 60 135 0.0 1.0 0.00 0.00 0.00 79 1011.8
20260510042145 60 93 1.0 1.0 0.00 0.00 0.00 79 1011.8
20260510041533 60 103 1.0 1.0 0.00 0.00 0.00 80 1011.8
20260510040924 60 86 0.0 0.0 0.00 0.00 0.00 79 1011.8
20260510040343 60 123 0.0 0.0 0.00 0.00 0.00 80 1011.8
20260510035747 59 113 0.0 0.0 0.00 0.00 0.07 80 1011.8
20260510035123 60 91 0.0 1.0 0.00 0.00 0.07 80 1011.8
20260510034541 59 106 0.0 0.0 0.00 0.00 0.07 80 1011.8
20260510033909 59 150 0.0 0.0 0.00 0.00 0.07 80 1011.8
20260510033316 60 101 0.0 1.0 0.00 0.00 0.07 80 1011.5
20260510032752 60 159 1.0 1.0 0.00 0.00 0.07 80 1011.8
20260510032147 60 100 1.0 1.0 0.00 0.00 0.07 80 1011.8
20260510031524 60 134 1.0 2.0 0.00 0.00 0.07 79 1011.8
20260510030919 60 157 2.0 2.0 0.00 0.00 0.07 79 1011.5
20260510030328 60 91 0.0 0.0 0.00 0.00 0.07 79 1011.8
20260510025732 60 98 1.0 1.0 0.00 0.00 0.07 79 1011.5
20260510025123 60 105 1.0 1.0 0.00 0.00 0.07 79 1011.5
20260510023940 61 108 1.0 1.0 0.00 0.00 0.07 77 1011.5
20260510022739 61 115 0.0 1.0 0.00 0.00 0.07 77 1011.5
20260510021510 62 86 0.0 1.0 0.00 0.00 0.07 75 1011.1
20260510020952 62 95 1.0 1.0 0.00 0.00 0.07 75 1011.1
20260510015740 62 86 0.0 0.0 0.00 0.00 0.07 75 1011.1
20260510015143 62 125 2.0 2.0 0.00 0.00 0.07 76 1010.8
20260510014511 62 247 1.0 1.0 0.00 0.00 0.07 75 1010.8
20260510013946 62 89 0.0 0.0 0.00 0.00 0.07 75 1010.4
20260510012725 62 100 0.0 1.0 0.00 0.00 0.07 74 1010.4
20260510012131 62 111 1.0 2.0 0.00 0.00 0.07 73 1010.4
20260510011556 62 102 0.0 0.0 0.00 0.00 0.07 72 1010.4
20260510010951 63 89 0.0 0.0 0.00 0.00 0.07 72 1010.1
20260510010348 63 84 0.0 0.0 0.00 0.00 0.07 70 1010.1
20260510005143 63 92 0.0 0.0 0.00 0.00 0.07 70 1010.1
20260510004550 64 88 0.0 0.0 0.00 0.00 0.07 69 1009.8
20260510003307 65 94 0.0 0.0 0.00 0.00 0.07 67 1009.8
20260510002716 66 132 2.0 3.0 0.00 0.00 0.07 66 1009.8
20260510001511 66 96 1.0 1.0 0.00 0.00 0.07 65 1009.8
20260510000943 66 94 0.0 1.0 0.00 0.00 0.07 64 1009.4
20260510000349 66 82 0.0 0.0 0.00 0.00 0.07 63 1009.4
20260509235709 67 105 1.0 1.0 0.00 0.00 0.07 62 1009.4
20260509235126 67 212 3.0 3.0 0.00 0.00 0.07 61 1009.4
20260509234543 68 93 1.0 1.0 0.00 0.00 0.07 60 1009.4
20260509233949 68 100 0.0 0.0 0.00 0.00 0.07 61 1009.4
20260509233339 68 212 2.0 3.0 0.00 0.00 0.07 59 1009.1
20260509232129 69 133 1.0 1.0 0.00 0.00 0.07 60 1009.1
20260509231509 70 312 4.0 6.0 0.00 0.00 0.07 57 1009.1
20260509230951 70 189 2.0 2.0 0.00 0.00 0.07 57 1009.1
20260509230332 70 164 2.0 3.0 0.00 0.00 0.07 55 1009.1
20260509225146 70 94 1.0 2.0 0.00 0.00 0.07 56 1009.1
20260509224535 71 174 2.0 4.0 0.00 0.00 0.07 55 1009.1
20260509223928 71 241 4.0 4.0 0.00 0.00 0.07 52 1009.1
20260509223343 71 247 1.0 1.0 0.00 0.00 0.07 54 1009.4
20260509222130 71 232 6.0 7.0 0.00 0.00 0.07 51 1009.4
20260509220917 72 140 1.0 2.0 0.00 0.00 0.07 53 1009.4
20260509220325 72 128 3.0 4.0 0.00 0.00 0.07 52 1009.4
20260509215723 71 83 0.0 0.0 0.00 0.00 0.07 56 1009.4
20260509215134 70 155 1.0 1.0 0.00 0.00 0.07 57 1009.4
20260509214520 72 142 2.0 2.0 0.00 0.00 0.07 53 1009.4
20260509213334 71 303 2.0 2.0 0.00 0.00 0.07 53 1009.4
20260509212738 69 235 4.0 6.0 0.00 0.00 0.07 55 1009.4
20260509212145 71 218 5.0 7.0 0.00 0.00 0.07 54 1009.8
20260509211542 71 158 0.0 0.0 0.00 0.00 0.07 53 1009.4
20260509210931 71 94 0.0 0.0 0.00 0.00 0.07 56 1009.8
20260509210318 69 158 5.0 9.0 0.00 0.00 0.07 57 1009.8
20260509205747 71 72 1.0 2.0 0.00 0.00 0.07 57 1009.4
20260509205134 70 262 3.0 3.0 0.00 0.00 0.07 56 1009.8
20260509204537 70 230 6.0 8.0 0.00 0.00 0.07 55 1009.8
20260509203950 71 161 1.0 2.0 0.00 0.00 0.07 53 1009.8
20260509203321 70 298 2.0 3.0 0.00 0.00 0.07 56 1009.8
20260509202753 71 345 3.0 3.0 0.00 0.00 0.07 55 1009.8
20260509202126 70 90 1.0 2.0 0.00 0.00 0.07 53 1010.1
20260509201532 68 73 1.0 1.0 0.00 0.00 0.07 59 1010.1
20260509200939 71 81 0.0 0.0 0.00 0.00 0.07 55 1010.1
20260509200309 70 242 5.0 6.0 0.00 0.00 0.07 57 1010.1
20260509195125 69 229 7.0 8.0 0.00 0.00 0.07 57 1010.1
20260509193915 69 7 2.0 2.0 0.00 0.00 0.07 62 1010.1
20260509193337 67 226 2.0 3.0 0.00 0.00 0.07 62 1010.1
20260509192748 67 45 2.0 3.0 0.00 0.00 0.07 60 1010.4